| time (UTC) | temp F | wind direction | speed MPH | gust MPH | rain 1hr in | rain 24hr in | rain mn in | humidity % | barometer mb |
| 20260510221607 | 65 | 345 | 5.0 | 17.0 | 0.00 | 0.16 | 0.11 | 41 | 1010.4 |
| 20260510221043 | 65 | 311 | 6.0 | 21.0 | 0.00 | 0.16 | 0.11 | 41 | 1010.4 |
| 20260510220547 | 65 | 314 | 8.0 | 21.0 | 0.00 | 0.16 | 0.11 | 41 | 1010.2 |
| 20260510220056 | 65 | 260 | 8.0 | 21.0 | 0.00 | 0.16 | 0.11 | 41 | 1010.2 |
| 20260510215545 | 65 | 319 | 5.0 | 15.0 | 0.00 | 0.19 | 0.11 | 45 | 1010.2 |
| 20260510215046 | 65 | 252 | 6.0 | 15.0 | 0.00 | 0.19 | 0.11 | 45 | 1010.1 |
| 20260510214548 | 65 | 286 | 6.0 | 18.0 | 0.00 | 0.19 | 0.11 | 50 | 1010.0 |
| 20260510214043 | 65 | 302 | 9.0 | 18.0 | 0.00 | 0.19 | 0.11 | 48 | 1010.1 |
| 20260510213543 | 65 | 302 | 6.0 | 23.0 | 0.00 | 0.19 | 0.11 | 50 | 1010.2 |
| 20260510213051 | 65 | 306 | 9.0 | 23.0 | 0.00 | 0.19 | 0.11 | 50 | 1010.2 |
| 20260510212542 | 65 | 284 | 8.0 | 20.0 | 0.00 | 0.19 | 0.11 | 50 | 1010.1 |
| 20260510212043 | 65 | 269 | 5.0 | 20.0 | 0.00 | 0.19 | 0.11 | 52 | 1010.2 |
| 20260510211550 | 65 | 284 | 9.0 | 20.0 | 0.00 | 0.19 | 0.11 | 51 | 1010.2 |
| 20260510211044 | 65 | 304 | 5.0 | 15.0 | 0.00 | 0.19 | 0.11 | 54 | 1010.2 |
| 20260510210542 | 65 | 285 | 7.0 | 15.0 | 0.00 | 0.19 | 0.11 | 53 | 1010.1 |
| 20260510210050 | 65 | 315 | 4.0 | 17.0 | 0.00 | 0.19 | 0.11 | 54 | 1010.1 |
| 20260510205546 | 65 | 324 | 5.0 | 18.0 | 0.00 | 0.23 | 0.11 | 55 | 1010.0 |
| 20260510205046 | 65 | 341 | 8.0 | 18.0 | 0.00 | 0.23 | 0.11 | 55 | 1010.0 |
| 20260510204557 | 65 | 259 | 4.0 | 13.0 | 0.00 | 0.23 | 0.11 | 58 | 1010.0 |
| 20260510204046 | 65 | 311 | 6.0 | 13.0 | 0.00 | 0.23 | 0.11 | 59 | 1010.0 |
| 20260510203543 | 64 | 288 | 4.0 | 12.0 | 0.00 | 0.23 | 0.11 | 62 | 1010.1 |
| 20260510203055 | 63 | 333 | 5.0 | 12.0 | 0.00 | 0.23 | 0.11 | 63 | 1010.1 |
| 20260510202543 | 63 | 288 | 5.0 | 16.0 | 0.00 | 0.23 | 0.11 | 65 | 1010.0 |
| 20260510202045 | 63 | 277 | 4.0 | 16.0 | 0.00 | 0.23 | 0.11 | 64 | 1010.1 |
| 20260510201548 | 64 | 261 | 3.0 | 16.0 | 0.00 | 0.23 | 0.11 | 63 | 1010.0 |
| 20260510201043 | 64 | 314 | 3.0 | 18.0 | 0.00 | 0.23 | 0.11 | 66 | 1010.0 |
| 20260510200543 | 64 | 307 | 5.0 | 18.0 | 0.00 | 0.23 | 0.11 | 66 | 1010.1 |
| 20260510200116 | 63 | 322 | 7.0 | 18.0 | 0.00 | 0.23 | 0.11 | 66 | 1010.1 |
| 20260510195546 | 63 | 298 | 4.0 | 18.0 | 0.00 | 0.35 | 0.11 | 72 | 1010.1 |
| 20260510195042 | 63 | 291 | 5.0 | 13.0 | 0.00 | 0.35 | 0.11 | 71 | 1010.1 |
| 20260510194559 | 62 | 266 | 0.0 | 6.0 | 0.00 | 0.35 | 0.11 | 81 | 1010.3 |
| 20260510194045 | 61 | 297 | 1.0 | 6.0 | 0.00 | 0.35 | 0.11 | 81 | 1010.2 |
| 20260510193543 | 61 | 321 | 3.0 | 6.0 | 0.00 | 0.35 | 0.11 | 82 | 1010.3 |
| 20260510193104 | 60 | 309 | 1.0 | 6.0 | 0.00 | 0.35 | 0.11 | 84 | 1010.2 |
| 20260510192545 | 60 | 290 | 2.0 | 4.0 | 0.00 | 0.35 | 0.11 | 85 | 1010.3 |
| 20260510192043 | 60 | 0 | 0.0 | 5.0 | 0.00 | 0.35 | 0.11 | 85 | 1010.2 |
| 20260510191605 | 60 | 296 | 0.0 | 5.0 | 0.01 | 0.35 | 0.11 | 89 | 1010.3 |
| 20260510191043 | 59 | 0 | 0.0 | 5.0 | 0.01 | 0.35 | 0.11 | 89 | 1010.3 |
| 20260510190547 | 59 | 288 | 1.0 | 5.0 | 0.01 | 0.35 | 0.11 | 89 | 1010.6 |
| 20260510190051 | 58 | 315 | 2.0 | 5.0 | 0.04 | 0.35 | 0.11 | 89 | 1010.6 |
| 20260510185543 | 58 | 291 | 0.0 | 6.0 | 0.06 | 0.46 | 0.11 | 91 | 1010.5 |
| 20260510185042 | 57 | 32 | 1.0 | 6.0 | 0.06 | 0.46 | 0.11 | 91 | 1010.5 |
| 20260510184552 | 57 | 34 | 1.0 | 6.0 | 0.06 | 0.46 | 0.11 | 92 | 1010.7 |
| 20260510184044 | 56 | 269 | 1.0 | 4.0 | 0.06 | 0.46 | 0.11 | 93 | 1010.8 |
| 20260510183543 | 56 | 329 | 1.0 | 4.0 | 0.06 | 0.46 | 0.11 | 94 | 1010.9 |
| 20260510183055 | 55 | 347 | 0.0 | 4.0 | 0.06 | 0.46 | 0.11 | 95 | 1010.8 |
| 20260510182542 | 55 | 0 | 0.0 | 2.0 | 0.06 | 0.46 | 0.11 | 96 | 1011.0 |
| 20260510182042 | 55 | 72 | 0.0 | 2.0 | 0.07 | 0.46 | 0.11 | 97 | 1010.9 |
| 20260510181556 | 54 | 0 | 0.0 | 1.0 | 0.07 | 0.45 | 0.10 | 96 | 1011.0 |
| 20260510181043 | 54 | 0 | 0.0 | 2.0 | 0.07 | 0.45 | 0.10 | 96 | 1011.2 |
| 20260510180543 | 53 | 0 | 0.0 | 3.0 | 0.08 | 0.45 | 0.10 | 95 | 1011.1 |
| 20260510180053 | 53 | 327 | 1.0 | 3.0 | 0.04 | 0.41 | 0.06 | 95 | 1011.2 |
| 20260510175543 | 53 | 293 | 1.0 | 3.0 | 0.03 | 0.48 | 0.05 | 95 | 1011.1 |
| 20260510175043 | 53 | 20 | 1.0 | 3.0 | 0.03 | 0.48 | 0.05 | 95 | 1011.1 |
| 20260510174556 | 53 | 300 | 1.0 | 3.0 | 0.03 | 0.48 | 0.05 | 95 | 1011.2 |
| 20260510174043 | 54 | 323 | 2.0 | 3.0 | 0.03 | 0.48 | 0.05 | 95 | 1011.1 |
| 20260510173542 | 54 | 0 | 1.0 | 3.0 | 0.03 | 0.48 | 0.05 | 96 | 1011.2 |
| 20260510173101 | 54 | 310 | 1.0 | 5.0 | 0.03 | 0.48 | 0.05 | 95 | 1011.2 |
| 20260510172543 | 53 | 0 | 1.0 | 5.0 | 0.03 | 0.48 | 0.05 | 95 | 1011.2 |
| 20260510172043 | 54 | 305 | 2.0 | 5.0 | 0.02 | 0.47 | 0.04 | 95 | 1011.2 |
| 20260510171554 | 54 | 300 | 2.0 | 5.0 | 0.01 | 0.46 | 0.03 | 94 | 1011.2 |
| 20260510171044 | 54 | 300 | 1.0 | 6.0 | 0.01 | 0.46 | 0.03 | 94 | 1011.1 |
| 20260510170543 | 54 | 0 | 2.0 | 6.0 | 0.00 | 0.45 | 0.02 | 94 | 1011.1 |
| 20260510170106 | 54 | 333 | 4.0 | 6.0 | 0.00 | 0.45 | 0.02 | 93 | 1011.2 |
| 20260510165543 | 54 | 313 | 3.0 | 6.0 | 0.00 | 0.46 | 0.02 | 94 | 1011.2 |
| 20260510165044 | 54 | 337 | 3.0 | 6.0 | 0.00 | 0.46 | 0.02 | 94 | 1011.0 |
| 20260510164548 | 54 | 293 | 3.0 | 6.0 | 0.00 | 0.46 | 0.02 | 95 | 1011.1 |
| 20260510164043 | 54 | 333 | 2.0 | 4.0 | 0.00 | 0.46 | 0.02 | 96 | 1011.1 |
| 20260510163544 | 54 | 328 | 1.0 | 3.0 | 0.00 | 0.46 | 0.02 | 96 | 1011.1 |
| 20260510163055 | 53 | 304 | 2.0 | 3.0 | 0.00 | 0.46 | 0.02 | 96 | 1011.1 |
| 20260510162543 | 53 | 0 | 1.0 | 3.0 | 0.00 | 0.46 | 0.02 | 96 | 1011.2 |
| 20260510162043 | 54 | 286 | 0.0 | 3.0 | 0.00 | 0.46 | 0.02 | 97 | 1011.3 |
| 20260510161553 | 53 | 0 | 0.0 | 2.0 | 0.00 | 0.46 | 0.02 | 97 | 1011.3 |
| 20260510161047 | 53 | 106 | 0.0 | 2.0 | 0.00 | 0.46 | 0.02 | 97 | 1011.3 |
| 20260510160546 | 53 | 0 | 0.0 | 3.0 | 0.00 | 0.46 | 0.02 | 97 | 1011.3 |
| 20260510160056 | 53 | 0 | 0.0 | 3.0 | 0.00 | 0.46 | 0.02 | 97 | 1011.2 |
| 20260510155548 | 53 | 75 | 0.0 | 3.0 | 0.00 | 0.47 | 0.02 | 97 | 1011.1 |
| 20260510155044 | 53 | 0 | 0.0 | 5.0 | 0.00 | 0.47 | 0.02 | 97 | 1011.1 |
| 20260510154601 | 53 | 150 | 1.0 | 5.0 | 0.00 | 0.47 | 0.02 | 97 | 1010.9 |
| 20260510154043 | 53 | 148 | 1.0 | 6.0 | 0.00 | 0.47 | 0.02 | 98 | 1010.9 |
| 20260510153543 | 53 | 139 | 1.0 | 6.0 | 0.00 | 0.47 | 0.02 | 98 | 1010.8 |
| 20260510153055 | 52 | 71 | 3.0 | 6.0 | 0.00 | 0.47 | 0.02 | 98 | 1010.8 |
| 20260510152543 | 52 | 104 | 1.0 | 5.0 | 0.00 | 0.47 | 0.02 | 98 | 1010.9 |
| 20260510152044 | 52 | 86 | 1.0 | 5.0 | 0.00 | 0.47 | 0.02 | 98 | 1011.1 |
| 20260510151552 | 51 | 129 | 0.0 | 4.0 | 0.00 | 0.47 | 0.02 | 98 | 1011.3 |
| 20260510151043 | 51 | 130 | 2.0 | 4.0 | 0.00 | 0.47 | 0.02 | 98 | 1011.2 |
| 20260510150543 | 51 | 130 | 0.0 | 4.0 | 0.00 | 0.47 | 0.02 | 98 | 1011.2 |
| 20260510150059 | 51 | 115 | 0.0 | 4.0 | 0.00 | 0.47 | 0.02 | 98 | 1011.2 |
| 20260510145542 | 50 | 217 | 0.0 | 2.0 | 0.00 | 0.47 | 0.02 | 98 | 1011.2 |
| 20260510145042 | 50 | 176 | 0.0 | 4.0 | 0.00 | 0.47 | 0.02 | 98 | 1011.2 |
| 20260510144554 | 50 | 147 | 1.0 | 4.0 | 0.00 | 0.47 | 0.02 | 98 | 1011.1 |
| 20260510144046 | 50 | 150 | 0.0 | 2.0 | 0.00 | 0.47 | 0.02 | 98 | 1011.1 |
| 20260510143545 | 50 | 0 | 0.0 | 4.0 | 0.00 | 0.47 | 0.02 | 98 | 1011.0 |
| 20260510143053 | 49 | 82 | 1.0 | 4.0 | 0.00 | 0.47 | 0.02 | 98 | 1011.1 |
| 20260510142545 | 49 | 126 | 0.0 | 4.0 | 0.00 | 0.47 | 0.02 | 98 | 1011.1 |
| 20260510142050 | 49 | 130 | 1.0 | 4.0 | 0.00 | 0.47 | 0.02 | 98 | 1011.1 |
| 20260510141604 | 49 | 0 | 0.0 | 4.0 | 0.00 | 0.47 | 0.02 | 98 | 1011.3 |
| 20260510141043 | 49 | 122 | 1.0 | 4.0 | 0.00 | 0.47 | 0.02 | 98 | 1011.3 |
| 20260510140545 | 49 | 138 | 0.0 | 2.0 | 0.00 | 0.47 | 0.02 | 98 | 1011.4 |
| 20260510140056 | 49 | 156 | 0.0 | 2.0 | 0.00 | 0.47 | 0.02 | 98 | 1011.4 |
| 20260510135543 | 49 | 0 | 0.0 | 2.0 | 0.00 | 0.47 | 0.02 | 98 | 1011.3 |
| 20260510135044 | 49 | 157 | 0.0 | 3.0 | 0.00 | 0.47 | 0.02 | 98 | 1011.2 |
| 20260510134606 | 49 | 0 | 0.0 | 3.0 | 0.00 | 0.47 | 0.02 | 98 | 1011.0 |
| 20260510134045 | 49 | 0 | 0.0 | 3.0 | 0.00 | 0.47 | 0.02 | 98 | 1011.1 |
| 20260510133542 | 49 | 84 | 0.0 | 2.0 | 0.00 | 0.47 | 0.02 | 98 | 1011.0 |
| 20260510133116 | 49 | 0 | 0.0 | 3.0 | 0.00 | 0.47 | 0.02 | 98 | 1011.1 |
| 20260510132545 | 48 | 0 | 0.0 | 3.0 | 0.00 | 0.47 | 0.02 | 98 | 1010.8 |
| 20260510132045 | 48 | 0 | 0.0 | 2.0 | 0.00 | 0.47 | 0.02 | 98 | 1011.0 |
| 20260510131603 | 48 | 148 | 0.0 | 2.0 | 0.00 | 0.47 | 0.02 | 98 | 1011.3 |
| 20260510131045 | 48 | 150 | 0.0 | 2.0 | 0.00 | 0.47 | 0.02 | 98 | 1011.4 |
| 20260510130547 | 48 | 0 | 0.0 | 2.0 | 0.00 | 0.47 | 0.02 | 98 | 1011.3 |
| 20260510130058 | 48 | 0 | 0.0 | 1.0 | 0.00 | 0.47 | 0.02 | 98 | 1011.3 |
| 20260510125545 | 47 | 0 | 0.0 | 1.0 | 0.00 | 0.47 | 0.02 | 98 | 1011.2 |
| 20260510125045 | 47 | 0 | 0.0 | 0.0 | 0.00 | 0.47 | 0.02 | 98 | 1011.1 |
| 20260510124557 | 47 | 0 | 0.0 | 1.0 | 0.00 | 0.47 | 0.02 | 98 | 1011.2 |
| 20260510124043 | 47 | 0 | 0.0 | 1.0 | 0.00 | 0.47 | 0.02 | 98 | 1011.2 |
| 20260510123543 | 47 | 0 | 0.0 | 1.0 | 0.00 | 0.47 | 0.02 | 98 | 1011.1 |
| 20260510123104 | 47 | 279 | 0.0 | 1.0 | 0.00 | 0.47 | 0.02 | 98 | 1011.3 |
| 20260510122542 | 47 | 0 | 0.0 | 3.0 | 0.00 | 0.47 | 0.02 | 98 | 1011.2 |
| 20260510122113 | 47 | 0 | 0.0 | 3.0 | 0.00 | 0.47 | 0.02 | 98 | 1011.1 |
| 20260510121555 | 47 | 31 | 0.0 | 1.0 | 0.00 | 0.47 | 0.02 | 98 | 1011.0 |
| 20260510121046 | 46 | 0 | 0.0 | 2.0 | 0.00 | 0.47 | 0.02 | 98 | 1010.8 |
| 20260510120546 | 46 | 0 | 0.0 | 2.0 | 0.00 | 0.47 | 0.02 | 98 | 1010.8 |
| 20260510120059 | 46 | 0 | 0.0 | 1.0 | 0.00 | 0.47 | 0.02 | 98 | 1011.0 |
| 20260510115550 | 46 | 0 | 0.0 | 1.0 | 0.00 | 0.47 | 0.02 | 98 | 1011.0 |
| 20260510115047 | 46 | 0 | 0.0 | 0.0 | 0.00 | 0.47 | 0.02 | 98 | 1011.0 |
| 20260510114556 | 46 | 0 | 0.0 | 1.0 | 0.00 | 0.47 | 0.02 | 98 | 1011.1 |
| 20260510114043 | 46 | 0 | 0.0 | 1.0 | 0.00 | 0.47 | 0.02 | 98 | 1011.0 |
| 20260510113543 | 45 | 0 | 0.0 | 0.0 | 0.00 | 0.47 | 0.02 | 98 | 1011.0 |
| 20260510113056 | 45 | 0 | 0.0 | 0.0 | 0.00 | 0.47 | 0.02 | 98 | 1010.9 |
| 20260510112546 | 45 | 0 | 0.0 | 0.0 | 0.00 | 0.47 | 0.02 | 98 | 1010.8 |
| 20260510112043 | 45 | 0 | 0.0 | 1.0 | 0.00 | 0.47 | 0.02 | 98 | 1010.8 |
| 20260510111602 | 45 | 0 | 0.0 | 1.0 | 0.00 | 0.47 | 0.02 | 98 | 1010.9 |
| 20260510111044 | 45 | 0 | 0.0 | 0.0 | 0.00 | 0.47 | 0.02 | 98 | 1010.7 |
| 20260510110547 | 45 | 0 | 0.0 | 0.0 | 0.00 | 0.47 | 0.02 | 98 | 1010.7 |
| 20260510110055 | 45 | 0 | 0.0 | 0.0 | 0.00 | 0.47 | 0.02 | 98 | 1010.6 |
| 20260510105545 | 44 | 0 | 0.0 | 1.0 | 0.00 | 0.47 | 0.02 | 98 | 1010.6 |
| 20260510105046 | 44 | 0 | 0.0 | 2.0 | 0.00 | 0.47 | 0.02 | 98 | 1010.7 |
| 20260510104557 | 44 | 0 | 0.0 | 2.0 | 0.00 | 0.47 | 0.02 | 98 | 1010.6 |
| 20260510104049 | 44 | 336 | 1.0 | 2.0 | 0.00 | 0.47 | 0.02 | 98 | 1010.4 |
| 20260510103545 | 44 | 0 | 0.0 | 2.0 | 0.00 | 0.47 | 0.02 | 98 | 1010.2 |
| 20260510103100 | 44 | 311 | 1.0 | 2.0 | 0.00 | 0.47 | 0.02 | 98 | 1010.0 |
| 20260510102545 | 44 | 0 | 0.0 | 1.0 | 0.00 | 0.47 | 0.02 | 98 | 1009.6 |
| 20260510102045 | 44 | 0 | 0.0 | 1.0 | 0.00 | 0.47 | 0.02 | 98 | 1009.5 |
| 20260510101555 | 44 | 0 | 0.0 | 1.0 | 0.00 | 0.47 | 0.02 | 98 | 1009.8 |
| 20260510101046 | 44 | 0 | 0.0 | 1.0 | 0.00 | 0.47 | 0.02 | 98 | 1010.2 |
| 20260510100548 | 44 | 0 | 0.0 | 1.0 | 0.00 | 0.47 | 0.02 | 98 | 1009.7 |
| 20260510100055 | 44 | 0 | 0.0 | 1.0 | 0.00 | 0.47 | 0.02 | 98 | 1009.8 |
| 20260510095545 | 44 | 0 | 0.0 | 1.0 | 0.00 | 0.47 | 0.02 | 98 | 1010.0 |
| 20260510095046 | 44 | 0 | 0.0 | 1.0 | 0.00 | 0.47 | 0.02 | 98 | 1009.7 |
| 20260510094553 | 44 | 0 | 0.0 | 1.0 | 0.00 | 0.47 | 0.02 | 98 | 1009.4 |
| 20260510094044 | 44 | 0 | 0.0 | 1.0 | 0.00 | 0.47 | 0.02 | 98 | 1009.5 |
| 20260510093544 | 44 | 0 | 0.0 | 1.0 | 0.00 | 0.47 | 0.02 | 98 | 1009.6 |
| 20260510093056 | 44 | 142 | 0.0 | 1.0 | 0.00 | 0.47 | 0.02 | 98 | 1009.3 |
| 20260510092545 | 44 | 0 | 0.0 | 0.0 | 0.00 | 0.47 | 0.02 | 98 | 1009.5 |
| 20260510092046 | 44 | 0 | 0.0 | 0.0 | 0.00 | 0.47 | 0.02 | 98 | 1009.6 |
| 20260510091552 | 44 | 0 | 0.0 | 0.0 | 0.00 | 0.47 | 0.02 | 98 | 1009.7 |
| 20260510091044 | 44 | 0 | 0.0 | 0.0 | 0.00 | 0.47 | 0.02 | 98 | 1009.7 |
| 20260510090544 | 44 | 0 | 0.0 | 0.0 | 0.00 | 0.47 | 0.02 | 98 | 1009.7 |
| 20260510090058 | 44 | 0 | 0.0 | 0.0 | 0.00 | 0.47 | 0.02 | 98 | 1009.5 |
| 20260510085545 | 44 | 0 | 0.0 | 0.0 | 0.00 | 0.47 | 0.02 | 98 | 1009.6 |
| 20260510085043 | 44 | 0 | 0.0 | 0.0 | 0.00 | 0.47 | 0.02 | 98 | 1009.7 |
| 20260510084552 | 44 | 0 | 0.0 | 0.0 | 0.00 | 0.47 | 0.02 | 98 | 1010.1 |
| 20260510084044 | 44 | 0 | 0.0 | 0.0 | 0.00 | 0.47 | 0.02 | 98 | 1010.0 |
| 20260510083544 | 44 | 0 | 0.0 | 0.0 | 0.00 | 0.47 | 0.02 | 98 | 1010.1 |
| 20260510083052 | 44 | 0 | 0.0 | 1.0 | 0.01 | 0.47 | 0.02 | 98 | 1010.1 |
| 20260510082543 | 44 | 0 | 0.0 | 1.0 | 0.01 | 0.47 | 0.02 | 98 | 1010.1 |
| 20260510082042 | 44 | 0 | 0.0 | 1.0 | 0.01 | 0.47 | 0.02 | 98 | 1010.1 |
| 20260510081553 | 44 | 0 | 0.0 | 0.0 | 0.01 | 0.47 | 0.02 | 98 | 1009.9 |
| 20260510081044 | 44 | 0 | 0.0 | 0.0 | 0.01 | 0.47 | 0.02 | 98 | 1009.9 |
| 20260510080545 | 44 | 0 | 0.0 | 1.0 | 0.01 | 0.47 | 0.02 | 98 | 1009.9 |
| 20260510080047 | 44 | 283 | 0.0 | 1.0 | 0.01 | 0.47 | 0.02 | 98 | 1009.6 |
| 20260510075542 | 43 | 0 | 0.0 | 2.0 | 0.01 | 0.47 | 0.02 | 98 | 1009.4 |
| 20260510075044 | 43 | 0 | 0.0 | 2.0 | 0.01 | 0.47 | 0.02 | 98 | 1009.3 |
| 20260510074600 | 43 | 0 | 0.0 | 1.0 | 0.01 | 0.47 | 0.02 | 98 | 1009.8 |
| 20260510074041 | 44 | 141 | 0.0 | 2.0 | 0.01 | 0.47 | 0.02 | 98 | 1009.7 |
| 20260510073541 | 44 | 0 | 0.0 | 2.0 | 0.01 | 0.47 | 0.02 | 98 | 1010.3 |
| 20260510073105 | 43 | 94 | 0.0 | 1.0 | 0.00 | 0.46 | 0.01 | 98 | 1010.3 |
| 20260510072543 | 43 | 0 | 0.0 | 0.0 | 0.00 | 0.46 | 0.01 | 98 | 1010.6 |
| 20260510072044 | 43 | 0 | 0.0 | 0.0 | 0.00 | 0.46 | 0.01 | 98 | 1010.5 |
| 20260510071603 | 43 | 0 | 0.0 | 0.0 | 0.00 | 0.46 | 0.01 | 98 | 1010.4 |
| 20260510071042 | 43 | 0 | 0.0 | 0.0 | 0.00 | 0.46 | 0.01 | 98 | 1010.3 |
| 20260510070544 | 43 | 0 | 0.0 | 0.0 | 0.00 | 0.46 | 0.01 | 98 | 1010.3 |
| 20260510070055 | 43 | 0 | 0.0 | 0.0 | 0.00 | 0.46 | 0.01 | 98 | 1010.3 |
| 20260510065544 | 43 | 0 | 0.0 | 0.0 | 0.00 | 0.46 | 0.01 | 98 | 1010.3 |
| 20260510065042 | 43 | 0 | 0.0 | 0.0 | 0.01 | 0.46 | 0.01 | 98 | 1010.4 |
| 20260510064559 | 43 | 0 | 0.0 | 0.0 | 0.01 | 0.46 | 0.01 | 98 | 1010.4 |
| 20260510064042 | 43 | 0 | 0.0 | 0.0 | 0.01 | 0.46 | 0.01 | 98 | 1010.4 |
| 20260510063542 | 43 | 0 | 0.0 | 0.0 | 0.01 | 0.46 | 0.01 | 98 | 1010.3 |
| 20260510063055 | 43 | 0 | 0.0 | 0.0 | 0.01 | 0.46 | 0.01 | 98 | 1010.3 |
| 20260510062541 | 43 | 0 | 0.0 | 0.0 | 0.01 | 0.46 | 0.01 | 98 | 1010.3 |
| 20260510062044 | 43 | 0 | 0.0 | 0.0 | 0.01 | 0.46 | 0.01 | 98 | 1010.4 |
| 20260510061555 | 43 | 0 | 0.0 | 0.0 | 0.01 | 0.46 | 0.01 | 98 | 1010.5 |
| 20260510061046 | 43 | 0 | 0.0 | 0.0 | 0.01 | 0.46 | 0.01 | 98 | 1010.4 |
| 20260510060542 | 43 | 0 | 0.0 | 0.0 | 0.01 | 0.46 | 0.01 | 98 | 1010.2 |
| 20260510060053 | 43 | 0 | 0.0 | 0.0 | 0.01 | 0.46 | 0.01 | 98 | 1010.1 |
| 20260510055542 | 43 | 0 | 0.0 | 0.0 | 0.00 | 0.45 | 0.00 | 98 | 1010.1 |
| 20260510055045 | 43 | 0 | 0.0 | 0.0 | 0.00 | 0.45 | 0.00 | 98 | 1010.1 |
| 20260510054555 | 43 | 0 | 0.0 | 0.0 | 0.00 | 0.45 | 0.00 | 98 | 1010.2 |
| 20260510054043 | 43 | 0 | 0.0 | 0.0 | 0.00 | 0.45 | 0.00 | 98 | 1010.4 |
| 20260510053542 | 43 | 0 | 0.0 | 0.0 | 0.00 | 0.45 | 0.00 | 98 | 1010.6 |
| 20260510053051 | 43 | 0 | 0.0 | 0.0 | 0.00 | 0.45 | 0.00 | 98 | 1010.7 |
| 20260510052542 | 43 | 0 | 0.0 | 0.0 | 0.00 | 0.45 | 0.00 | 98 | 1010.6 |
| 20260510052044 | 43 | 0 | 0.0 | 0.0 | 0.00 | 0.45 | 0.00 | 98 | 1010.7 |
| 20260510051557 | 43 | 0 | 0.0 | 0.0 | 0.00 | 0.45 | 0.00 | 98 | 1010.6 |
| 20260510051041 | 43 | 0 | 0.0 | 0.0 | 0.00 | 0.45 | 0.00 | 98 | 1010.6 |
| 20260510050541 | 43 | 0 | 0.0 | 0.0 | 0.00 | 0.45 | 0.00 | 98 | 1010.7 |
| 20260510050052 | 43 | 0 | 0.0 | 0.0 | 0.00 | 0.45 | 0.00 | 98 | 1010.6 |
| 20260510045545 | 43 | 0 | 0.0 | 0.0 | 0.00 | 0.45 | 0.00 | 98 | 1010.7 |
| 20260510045047 | 43 | 0 | 0.0 | 2.0 | 0.00 | 0.45 | 0.00 | 98 | 1010.8 |
| 20260510044553 | 43 | 0 | 0.0 | 2.0 | 0.00 | 0.45 | 0.00 | 98 | 1010.7 |
| 20260510044042 | 43 | 138 | 0.0 | 3.0 | 0.00 | 0.45 | 0.00 | 98 | 1010.8 |
| 20260510043543 | 43 | 0 | 0.0 | 3.0 | 0.00 | 0.45 | 0.00 | 98 | 1010.8 |
| 20260510043106 | 43 | 154 | 0.0 | 2.0 | 0.00 | 0.45 | 0.00 | 98 | 1010.8 |
| 20260510042541 | 43 | 153 | 0.0 | 1.0 | 0.00 | 0.45 | 0.00 | 98 | 1010.8 |
| 20260510042043 | 43 | 153 | 0.0 | 3.0 | 0.00 | 0.45 | 0.00 | 98 | 1010.7 |
| 20260510041556 | 43 | 0 | 0.0 | 3.0 | 0.00 | 0.45 | 0.00 | 98 | 1010.8 |
| 20260510041044 | 43 | 0 | 0.0 | 2.0 | 0.00 | 0.45 | 0.00 | 98 | 1010.7 |
| 20260510040543 | 43 | 0 | 0.0 | 1.0 | 0.00 | 0.45 | 0.00 | 98 | 1010.8 |
| 20260510040059 | 43 | 0 | 0.0 | 2.0 | 0.00 | 0.45 | 0.00 | 98 | 1010.7 |
| 20260510035542 | 43 | 153 | 0.0 | 2.0 | 0.00 | 0.45 | 0.45 | 98 | 1010.7 |
| 20260510035046 | 43 | 0 | 0.0 | 4.0 | 0.00 | 0.45 | 0.45 | 98 | 1010.8 |
| 20260510034553 | 43 | 132 | 1.0 | 4.0 | 0.00 | 0.45 | 0.45 | 98 | 1010.9 |
| 20260510034044 | 43 | 0 | 0.0 | 3.0 | 0.00 | 0.45 | 0.45 | 98 | 1010.9 |
| 20260510033544 | 43 | 122 | 0.0 | 0.0 | 0.00 | 0.45 | 0.45 | 98 | 1010.9 |
| 20260510033055 | 43 | 0 | 0.0 | 2.0 | 0.00 | 0.45 | 0.45 | 97 | 1010.9 |
| 20260510032543 | 43 | 0 | 0.0 | 2.0 | 0.00 | 0.45 | 0.45 | 98 | 1011.0 |
| 20260510032043 | 43 | 0 | 0.0 | 2.0 | 0.00 | 0.45 | 0.45 | 98 | 1010.9 |
| 20260510031554 | 43 | 0 | 0.0 | 2.0 | 0.00 | 0.45 | 0.45 | 98 | 1011.0 |
| 20260510031044 | 43 | 160 | 0.0 | 1.0 | 0.00 | 0.45 | 0.45 | 97 | 1011.0 |
| 20260510030545 | 43 | 0 | 0.0 | 1.0 | 0.00 | 0.45 | 0.45 | 97 | 1011.2 |
| 20260510030051 | 43 | 0 | 0.0 | 1.0 | 0.00 | 0.45 | 0.45 | 97 | 1011.3 |
| 20260510025543 | 43 | 160 | 0.0 | 1.0 | 0.00 | 0.45 | 0.45 | 97 | 1011.2 |
| 20260510025040 | 43 | 0 | 0.0 | 3.0 | 0.00 | 0.45 | 0.45 | 97 | 1011.3 |
| 20260510024553 | 43 | 0 | 0.0 | 3.0 | 0.00 | 0.45 | 0.45 | 97 | 1011.4 |
| 20260510024044 | 43 | 155 | 0.0 | 1.0 | 0.00 | 0.45 | 0.45 | 97 | 1011.2 |
| 20260510023543 | 43 | 0 | 0.0 | 3.0 | 0.00 | 0.45 | 0.45 | 97 | 1011.3 |
| 20260510023052 | 43 | 0 | 0.0 | 3.0 | 0.00 | 0.45 | 0.45 | 97 | 1011.2 |
| 20260510022543 | 43 | 0 | 1.0 | 3.0 | 0.00 | 0.45 | 0.45 | 97 | 1011.2 |
| 20260510022044 | 43 | 211 | 0.0 | 5.0 | 0.00 | 0.45 | 0.45 | 97 | 1011.4 |
| 20260510021549 | 43 | 0 | 0.0 | 5.0 | 0.00 | 0.45 | 0.45 | 97 | 1011.5 |
| 20260510021043 | 43 | 206 | 0.0 | 5.0 | 0.00 | 0.45 | 0.45 | 97 | 1011.6 |
| 20260510020543 | 43 | 236 | 0.0 | 5.0 | 0.00 | 0.45 | 0.45 | 97 | 1011.5 |
| 20260510020051 | 43 | 78 | 0.0 | 5.0 | 0.00 | 0.45 | 0.45 | 97 | 1011.4 |
| 20260510015545 | 43 | 238 | 0.0 | 4.0 | 0.00 | 0.45 | 0.45 | 97 | 1011.3 |
| 20260510015043 | 43 | 176 | 0.0 | 5.0 | 0.00 | 0.45 | 0.45 | 97 | 1011.2 |
| 20260510014549 | 43 | 240 | 1.0 | 5.0 | 0.00 | 0.45 | 0.45 | 97 | 1011.4 |
| 20260510014042 | 43 | 0 | 0.0 | 4.0 | 0.00 | 0.45 | 0.45 | 97 | 1011.6 |
| 20260510013544 | 43 | 0 | 0.0 | 5.0 | 0.00 | 0.45 | 0.45 | 97 | 1011.7 |
| 20260510013054 | 43 | 143 | 1.0 | 5.0 | 0.00 | 0.45 | 0.45 | 97 | 1011.7 |
| 20260510012543 | 43 | 91 | 0.0 | 4.0 | 0.00 | 0.45 | 0.45 | 97 | 1011.7 |
| 20260510012043 | 44 | 0 | 1.0 | 4.0 | 0.00 | 0.45 | 0.45 | 97 | 1011.8 |
| 20260510011552 | 44 | 0 | 1.0 | 3.0 | 0.00 | 0.45 | 0.45 | 97 | 1011.6 |
| 20260510011044 | 44 | 0 | 0.0 | 2.0 | 0.00 | 0.45 | 0.45 | 97 | 1011.6 |
| 20260510010543 | 44 | 230 | 0.0 | 5.0 | 0.00 | 0.45 | 0.45 | 97 | 1011.6 |
| 20260510010054 | 44 | 108 | 1.0 | 5.0 | 0.00 | 0.45 | 0.45 | 97 | 1011.6 |
| 20260510005543 | 44 | 128 | 1.0 | 5.0 | 0.00 | 0.45 | 0.45 | 97 | 1011.5 |
| 20260510005043 | 44 | 154 | 2.0 | 5.0 | 0.00 | 0.45 | 0.45 | 97 | 1011.5 |
| 20260510004554 | 44 | 241 | 0.0 | 2.0 | 0.00 | 0.45 | 0.45 | 97 | 1011.5 |
| 20260510004043 | 44 | 0 | 0.0 | 2.0 | 0.00 | 0.45 | 0.45 | 97 | 1011.5 |
| 20260510003543 | 44 | 0 | 0.0 | 2.0 | 0.00 | 0.45 | 0.45 | 97 | 1011.4 |
| 20260510003057 | 44 | 0 | 0.0 | 3.0 | 0.01 | 0.45 | 0.45 | 97 | 1011.3 |
| 20260510002542 | 44 | 0 | 0.0 | 3.0 | 0.01 | 0.45 | 0.45 | 97 | 1011.2 |
| 20260510002043 | 44 | 0 | 0.0 | 3.0 | 0.01 | 0.45 | 0.45 | 97 | 1011.1 |
| 20260510001554 | 44 | 296 | 0.0 | 5.0 | 0.01 | 0.45 | 0.45 | 97 | 1011.0 |
| 20260510001044 | 44 | 290 | 0.0 | 5.0 | 0.01 | 0.45 | 0.45 | 97 | 1010.9 |
| 20260510000544 | 44 | 0 | 1.0 | 5.0 | 0.01 | 0.45 | 0.45 | 97 | 1010.9 |
| 20260510000052 | 44 | 209 | 0.0 | 5.0 | 0.01 | 0.45 | 0.45 | 97 | 1010.8 |
| 20260509235542 | 44 | 214 | 1.0 | 5.0 | 0.01 | 0.45 | 0.45 | 97 | 1010.8 |
| 20260509235042 | 44 | 146 | 1.0 | 5.0 | 0.02 | 0.45 | 0.45 | 97 | 1010.8 |
| 20260509234552 | 44 | 35 | 0.0 | 5.0 | 0.02 | 0.45 | 0.45 | 97 | 1010.9 |
| 20260509234043 | 44 | 0 | 0.0 | 5.0 | 0.02 | 0.45 | 0.45 | 97 | 1010.9 |
| 20260509233546 | 44 | 0 | 1.0 | 9.0 | 0.02 | 0.45 | 0.45 | 97 | 1010.9 |
| 20260509233054 | 44 | 167 | 1.0 | 9.0 | 0.01 | 0.44 | 0.44 | 97 | 1010.9 |
| 20260509232544 | 44 | 141 | 1.0 | 7.0 | 0.01 | 0.44 | 0.44 | 97 | 1010.9 |
| 20260509232043 | 44 | 173 | 2.0 | 7.0 | 0.02 | 0.44 | 0.44 | 97 | 1010.9 |
| 20260509231550 | 44 | 154 | 2.0 | 7.0 | 0.02 | 0.44 | 0.44 | 97 | 1010.8 |
| 20260509231044 | 44 | 0 | 1.0 | 7.0 | 0.03 | 0.44 | 0.44 | 97 | 1010.9 |
| 20260509230545 | 44 | 300 | 2.0 | 6.0 | 0.03 | 0.44 | 0.44 | 97 | 1010.9 |
| 20260509230051 | 44 | 0 | 0.0 | 4.0 | 0.04 | 0.44 | 0.44 | 97 | 1011.0 |
| 20260509225542 | 44 | 0 | 1.0 | 4.0 | 0.04 | 0.44 | 0.44 | 97 | 1011.0 |
| 20260509225045 | 44 | 240 | 0.0 | 4.0 | 0.04 | 0.43 | 0.43 | 97 | 1010.9 |
| 20260509224559 | 44 | 0 | 0.0 | 5.0 | 0.04 | 0.43 | 0.43 | 97 | 1011.0 |
| 20260509224042 | 44 | 219 | 1.0 | 5.0 | 0.04 | 0.43 | 0.43 | 97 | 1011.0 |
| 20260509223543 | 44 | 226 | 1.0 | 9.0 | 0.04 | 0.43 | 0.43 | 97 | 1011.0 |
| 20260509223049 | 44 | 149 | 2.0 | 9.0 | 0.04 | 0.43 | 0.43 | 97 | 1011.0 |
| 20260509222544 | 44 | 0 | 3.0 | 9.0 | 0.04 | 0.43 | 0.43 | 97 | 1011.1 |
| 20260509222043 | 44 | 150 | 1.0 | 6.0 | 0.03 | 0.42 | 0.42 | 97 | 1011.2 |